Location: Kalberh�ni
(46.4610°N, 7.2453°E)
Time: 05:37:19
(UTC+00:00)

Cosmos 2333 Rocket - Pass Details

Date: 28 October 2021
Orbit: 837 x 865 km, 70.8° (Epoch: 05 December)

Event Time Altitude Azimuth Distance (km) Brightness Sun altitude
Exits shadow 04:24:21 22° 310° (NW) 1,798 3.5 -18.2°
Maximum altitude 04:27:36 42° 252° (WSW) 1,213 2.6 -17.6°
Drops below altitude 10° 04:32:58 10° 183° (S) 2,498 4.6 -16.7°
Sets 04:35:32 0° 177° (S) 3,431 5.4 -16.2°
